User: anonymous   Login
Location: Assche-ter-Heiden
(50.9174°N, 4.1574°E)
Time: 12:58:51
(UTC+00:00)
Language:

STARLINK-33 - Orbit

View from above orbital plane
View from above orbital plane
View from above satellite
View from above satellite

Ground track
Ground track

The orbit data is extracted from the following two-line orbital elements,

1 44247C 19029N   20099.18311184 -.00002504  00000-0 -33325-4 0   993
2 44247  53.0028 145.8236 0001752  45.7460 255.0254 15.57537946    17
Epoch (UTC): 08 April 2020 04:23:40
Eccentricity: 0.0001752
inclination: 53.0028°
perigee height: 393 km
apogee height: 396 km
right ascension of ascending node: 145.8236°
argument of perigee: 45.7460°
revolutions per day: 15.57537946
mean anomaly at epoch: 255.0254°
orbit number at epoch: 1

The dashed part of the orbit path shows where the satellite is in the earth's shadow,  

DLR